EW3861 Weather Reports


Display with metric or nautical units.
time (UTC)temp
F
wind
direction
speed
MPH
gust
MPH
rain 1hr
in
rain 24hr
in
rain mn
in
humidity
%
barometer
mb
20200328114634 29 355 0.0 0.0 0.00 0.00 0.00 85 1020.1
20200328113145 29 355 0.0 0.0 0.00 0.00 0.00 84 1019.8
20200328111618 28 355 0.0 0.0 0.00 0.00 0.00 83 1019.8
20200328110053 28 355 0.0 0.0 0.00 0.00 0.00 83 1019.6
20200328104557 29 355 0.0 0.0 0.00 0.00 0.00 83 1019.5
20200328103121 29 355 0.0 1.0 0.00 0.00 0.00 82 1019.1
20200328101635 29 355 0.0 0.0 0.00 0.00 0.00 81 1019.0
20200328100114 29 355 0.0 0.0 0.00 0.00 0.00 82 1018.8
20200328094544 30 355 0.0 0.0 0.00 0.00 0.00 82 1018.6
20200328093159 30 355 0.0 0.0 0.00 0.00 0.00 83 1018.7
20200328091608 30 355 0.0 0.0 0.00 0.00 0.00 82 1018.4
20200328090039 31 355 0.0 0.0 0.00 0.00 0.00 83 1018.2
20200328084525 31 355 0.0 0.0 0.00 0.00 0.00 83 1018.3
20200328083033 31 355 0.0 0.0 0.00 0.00 0.00 84 1018.4
20200328081606 31 355 0.0 0.0 0.00 0.00 0.00 82 1018.5
20200328080059 31 355 0.0 0.0 0.00 0.00 0.00 83 1018.3
20200328074610 31 355 0.0 0.0 0.00 0.00 0.00 83 1018.5
20200328073030 31 355 0.0 1.0 0.00 0.00 0.00 79 1018.3
20200328071534 32 355 0.0 0.0 0.00 0.00 0.00 80 1018.3
20200328070043 32 355 0.0 0.0 0.00 0.00 0.00 80 1018.2
20200328064520 32 355 0.0 1.0 0.00 0.00 0.00 80 1018.1
20200328063019 32 355 0.0 0.0 0.00 0.00 0.00 79 1017.9
20200328061523 32 355 0.0 1.0 0.00 0.00 0.00 77 1017.9
20200328060007 33 355 0.0 1.0 0.00 0.00 0.00 76 1018.2
20200328054514 33 355 0.0 1.0 0.00 0.00 0.00 73 1018.2
20200328053002 34 355 0.0 0.0 0.00 0.00 0.00 71 1018.0
20200328051700 34 355 0.0 0.0 0.00 0.00 0.00 71 1017.6
20200328050151 35 355 0.0 0.0 0.00 0.00 0.00 70 1017.7
20200328044707 35 355 0.0 0.0 0.00 0.00 0.00 70 1017.4
20200328043141 36 355 0.0 0.0 0.00 0.00 0.00 70 1017.2
20200328041746 36 355 0.0 0.0 0.00 0.00 0.00 70 1017.1
20200328040246 37 355 0.0 0.0 0.00 0.00 0.00 68 1017.0
20200328034647 37 355 0.0 0.0 0.00 0.00 0.00 68 1016.9
20200328033131 38 355 0.0 0.0 0.00 0.00 0.00 67 1016.4
20200328031610 38 355 0.0 0.0 0.00 0.00 0.00 64 1016.1
20200328030058 39 355 0.0 0.0 0.00 0.00 0.00 64 1015.8
20200328024601 40 355 0.0 0.0 0.00 0.00 0.00 61 1015.8
20200328023035 41 355 0.0 0.0 0.00 0.00 0.00 60 1015.5
20200328021528 42 355 0.0 0.0 0.00 0.00 0.00 59 1015.3
20200328020028 43 355 0.0 0.0 0.00 0.00 0.00 54 1015.1
20200328014602 44 355 0.0 0.0 0.00 0.00 0.00 54 1014.8
20200328013117 45 355 0.0 0.0 0.00 0.00 0.00 50 1014.4
20200328011526 46 355 0.0 0.0 0.00 0.00 0.00 49 1014.1
20200328010018 48 355 0.0 1.0 0.00 0.00 0.00 49 1013.9
20200328004602 49 355 0.0 0.0 0.00 0.00 0.00 44 1013.7
20200328003032 50 355 0.0 1.0 0.00 0.00 0.00 39 1013.1
20200328001521 52 355 0.0 0.0 0.00 0.00 0.00 39 1012.9
20200328000010 53 355 0.0 1.0 0.00 0.00 0.00 33 1012.7
20200327234508 54 355 0.0 1.0 0.00 0.00 0.00 32 1012.3
20200327233004 56 360 0.0 1.0 0.00 0.00 0.00 28 1012.0
20200327230233 58 292 1.0 4.0 0.00 0.00 0.00 25 1010.7
20200327224600 59 309 1.0 4.0 0.00 0.00 0.00 26 1010.2
20200327223152 60 333 1.0 4.0 0.00 0.00 0.00 25 1009.9
20200327221726 61 5 0.0 3.0 0.00 0.00 0.00 28 1009.7
20200327220145 61 270 0.0 4.0 0.00 0.00 0.00 26 1009.4
20200327214716 62 299 1.0 4.0 0.00 0.00 0.00 27 1009.1
20200327213114 62 26 1.0 4.0 0.00 0.00 0.00 27 1009.0
20200327210156 63 337 0.0 4.0 0.00 0.00 0.00 25 1008.6
20200327204524 63 201 1.0 8.0 0.00 0.00 0.00 27 1008.5
20200327201818 64 9 3.0 5.0 0.00 0.00 0.00 24 1008.2
20200327200022 63 313 4.0 6.0 0.00 0.00 0.00 26 1008.1
20200327193101 63 41 3.0 6.0 0.00 0.00 0.00 26 1007.8
20200327191511 63 300 2.0 7.0 0.00 0.00 0.00 26 1007.6
20200327190219 63 342 3.0 10.0 0.00 0.00 0.00 26 1007.8
20200327184718 63 295 3.0 10.0 0.00 0.00 0.00 27 1007.5
20200327183025 63 314 5.0 13.0 0.00 0.00 0.00 25 1007.4
20200327181524 63 288 1.0 5.0 0.00 0.00 0.00 29 1007.3
20200327180044 62 327 3.0 7.0 0.00 0.00 0.00 26 1007.1
20200327174540 62 286 2.0 7.0 0.00 0.00 0.00 26 1007.0
20200327173055 61 320 6.0 11.0 0.00 0.00 0.00 28 1007.1
20200327171516 60 297 3.0 8.0 0.00 0.00 0.00 29 1007.1
20200327170012 60 277 3.0 13.0 0.00 0.00 0.00 29 1007.0
20200327164522 60 321 3.0 9.0 0.00 0.00 0.00 31 1006.9
20200327163009 59 298 4.0 10.0 0.00 0.00 0.00 32 1006.5
20200327161519 59 294 1.0 6.0 0.00 0.00 0.00 33 1006.4
20200327160003 58 294 3.0 10.0 0.00 0.00 0.00 35 1006.6
20200327154502 58 308 3.0 9.0 0.00 0.00 0.00 39 1006.7
20200327153127 58 335 2.0 9.0 0.00 0.00 0.00 38 1006.7
20200327151724 57 340 2.0 8.0 0.00 0.00 0.00 39 1006.7
20200327150222 57 22 2.0 7.0 0.00 0.00 0.00 38 1006.6
20200327144704 56 234 2.0 9.0 0.00 0.00 0.00 47 1006.5
20200327143119 55 309 1.0 8.0 0.00 0.00 0.00 51 1006.4
20200327141648 55 51 4.0 9.0 0.00 0.00 0.00 52 1006.3
20200327140237 54 286 1.0 7.0 0.00 0.00 0.00 57 1006.1
20200327134655 53 18 0.0 7.0 0.00 0.00 0.00 61 1006.0
20200327133108 52 23 3.0 11.0 0.00 0.00 0.00 68 1005.9
20200327131649 51 302 2.0 6.0 0.00 0.00 0.00 75 1005.6
20200327130051 49 244 0.0 5.0 0.00 0.00 0.00 80 1005.5
20200327124554 47 283 0.0 2.0 0.00 0.00 0.00 83 1005.4
20200327123044 47 283 0.0 1.0 0.00 0.00 0.00 85 1005.2
20200327121522 46 283 0.0 2.0 0.00 0.00 0.00 85 1005.1
20200327120110 45 281 0.0 2.0 0.00 0.00 0.00 87 1005.0